Montreal, Quebec

4:02 PM EDT on April 21, 2018 (GMT -0400)
Montreal-Pierre Elliott Trudeau Int'l Airport

Weather History for CYUL - December, 2013

Change the Weather History Date:

Sunday, December 22, 2013

  Actual Average Record
Temperature  
Mean Temperature 17 °F -  
Max Temperature 19 °F 23 °F 41 °F (1998)
Min Temperature 15 °F 7 °F 0 °F (2008)
Degree Days  
Heating Degree Days 48    
Moisture  
Dew Point 15 °F    
Average Humidity 89    
Maximum Humidity 93    
Minimum Humidity 81    
Precipitation  
Precipitation 0.59 in 0.09 in - ()
Sea Level Pressure  
Sea Level Pressure 29.91 in    
Wind  
Wind Speed 20 mph ()    
Max Wind Speed 37 mph    
Max Gust Speed 45 mph    
Visibility 3.0 miles    
Events Rain , Snow    
Averages and records for this station are not official NWS values.
T = Trace of Precipitation, MM = Missing Value Source: Averaged Metar Reports

Daily Weather History Graph

Daily Weather History Graph

Search for Another Location

Airport or City:

Astronomy

Dec. 22, 2013 Rise Set
Actual Time 7:32 AM EST 4:15 PM EST
Civil Twilight 6:58 AM EST 4:49 PM EST
Nautical Twilight 6:20 AM EST 5:26 PM EST
Astronomical Twilight 5:44 AM EST 6:03 PM EST
Moon 9:39 PM EST (12/22) 10:14 AM EST (12/22)
Length of Visible Light 9h 51m
Length of Day
8h 42m
Waning Gibbous, 77% of the Moon is Illuminated
Dec 22
Waning Gibbous
Dec 25
Last Quarter
Jan 1
New
Jan 7
First Quarter
Jan 15
Full

Hourly Weather History & Observations

Time (EST) Temp. Windchill Dew Point Humidity Pressure Visibility Wind Dir Wind Speed Gust Speed Precip Events Conditions
12:00 AM 17.6 °F 0.9 °F 15.8 °F 93% 30.08 in 1.5 mi NNE 20.7 mph - N/A Snow Light Snow
1:00 AM 18 °F - 15 °F 82% 30.05 in 2 mi NNE 19.6 mph - - Snow Light Snow
1:00 AM 17.6 °F 1.3 °F 15.8 °F 93% 30.05 in 2.0 mi NNE 19.6 mph - N/A Snow Light Snow
2:00 AM 17.6 °F 1.3 °F 14.0 °F 86% 30.03 in 2.5 mi NNE 19.6 mph 28.8 mph N/A Snow Light Snow
3:00 AM 17.6 °F 0.1 °F 14.0 °F 86% 30.01 in 1.8 mi NNE 23.0 mph - N/A Snow Light Snow
4:00 AM 17.6 °F -0.3 °F 14.0 °F 86% 29.98 in 2.0 mi NNE 24.2 mph 34.5 mph N/A Snow Light Snow
5:00 AM 17.6 °F -0.3 °F 14.0 °F 86% 29.95 in 1.5 mi NNE 24.2 mph 31.1 mph N/A Snow Light Snow
5:27 AM 17.6 °F -1.6 °F 14.0 °F 86% 29.91 in 0.8 mi NNE 28.8 mph - N/A Snow Light Snow
5:39 AM 17.6 °F -2.2 °F 14.0 °F 86% 29.89 in 1.2 mi NNE 31.1 mph 40.3 mph N/A Snow Light Snow
5:51 AM 17.6 °F -1.6 °F 14.0 °F 86% 29.86 in 1.5 mi NNE 28.8 mph 36.8 mph N/A Snow Light Ice Pellets
6:00 AM 17.6 °F -1.0 °F 15.8 °F 93% 29.88 in 1.8 mi NNE 26.5 mph 39.1 mph N/A Snow Light Ice Pellets
7:00 AM 18 °F - 15 °F 83% 29.88 in 2 mi Calm Calm - -   Ice Pellets
7:00 AM 17.6 °F -2.2 °F 15.8 °F 93% 29.88 in 2.5 mi NNE 31.1 mph - N/A Snow Light Ice Pellets
8:00 AM 17.6 °F -1.9 °F 15.8 °F 93% 29.90 in 1.0 mi NNE 29.9 mph 40.3 mph N/A Snow Light Snow
8:38 AM 17.6 °F -1.6 °F 14.0 °F 86% 29.91 in 1.5 mi NNE 28.8 mph 38.0 mph N/A Snow Light Snow
9:00 AM 17.6 °F -2.2 °F 15.8 °F 93% 29.88 in 2.5 mi NNE 31.1 mph 39.1 mph N/A Snow Light Snow
10:00 AM 19.4 °F 0.2 °F 15.8 °F 86% 29.91 in 2.0 mi NNE 31.1 mph 44.9 mph N/A Snow Light Snow
11:00 AM 17.6 °F -3.6 °F 15.8 °F 93% 29.87 in 1.8 mi NE 36.8 mph - N/A Snow Light Snow
11:36 AM 17.6 °F -1.0 °F 15.8 °F 93% 29.85 in 2.5 mi NE 26.5 mph 35.7 mph N/A Snow Light Snow
12:00 PM 17.6 °F -0.3 °F 15.8 °F 93% 29.87 in 4.0 mi NE 24.2 mph 32.2 mph N/A Snow Light Snow
12:16 PM 17.6 °F 0.1 °F 15.8 °F 93% 29.84 in 1.5 mi NE 23.0 mph 35.7 mph N/A Snow Light Ice Pellets
12:26 PM 17.6 °F -0.3 °F 15.8 °F 93% 29.82 in 0.8 mi NE 24.2 mph 35.7 mph N/A Snow Light Ice Pellets
12:49 PM 17.6 °F 0.1 °F 15.8 °F 93% 29.81 in 1.0 mi NE 23.0 mph - N/A Snow Light Snow
1:00 PM 18 °F - 15 °F 83% 29.81 in 1 mi NE 20.7 mph - -   Ice Pellets
1:00 PM 17.6 °F 0.9 °F 15.8 °F 93% 29.81 in 1.5 mi NE 20.7 mph 31.1 mph N/A Snow Light Ice Pellets
1:39 PM 17.6 °F 0.9 °F 14.0 °F 86% 29.80 in 1.8 mi NE 20.7 mph 26.5 mph N/A   Light Freezing Drizzle
2:00 PM 17.6 °F 0.9 °F 15.8 °F 93% 29.81 in 1.2 mi NNE 20.7 mph - N/A   Light Freezing Drizzle
2:35 PM 17.6 °F 1.7 °F 15.8 °F 93% 29.81 in 3.0 mi NNE 18.4 mph 29.9 mph N/A   Light Freezing Drizzle
3:00 PM 17.6 °F 1.3 °F 15.8 °F 93% 29.83 in 2.0 mi NNE 19.6 mph 27.6 mph N/A   Light Ice Pellets
3:32 PM 17.6 °F 0.9 °F 14.0 °F 86% 29.85 in 3.0 mi NNE 20.7 mph 26.5 mph N/A Rain Light Freezing Rain
4:00 PM 17.6 °F 0.5 °F 14.0 °F 86% 29.84 in 4.0 mi NNE 21.9 mph 27.6 mph N/A Rain Light Freezing Rain
4:35 PM 17.6 °F 2.2 °F 14.0 °F 86% 29.87 in 3.0 mi NNE 17.3 mph 23.0 mph N/A Snow Light Ice Pellets
5:00 PM 17.6 °F 1.3 °F 14.0 °F 86% 29.87 in 4.0 mi NNE 19.6 mph - N/A   Light Ice Pellets
6:00 PM 17.6 °F 3.7 °F 15.8 °F 93% 29.93 in 3.0 mi NNE 13.8 mph 19.6 mph N/A Snow Light Ice Pellets
6:30 PM 17.6 °F 4.3 °F 15.8 °F 93% 29.92 in 4.0 mi NNE 12.7 mph - N/A   Light Freezing Drizzle
7:00 PM 18 °F - 15 °F 81% 29.93 in 7 mi NNE 12.7 mph - - Rain Light Freezing Drizzle
7:00 PM 17.6 °F 4.3 °F 14.0 °F 86% 29.93 in 8.0 mi North 12.7 mph 20.7 mph N/A   Light Freezing Drizzle
7:36 PM 17.6 °F 3.7 °F 14.0 °F 86% 29.94 in 10.0 mi NNE 13.8 mph - N/A   Overcast
8:00 PM 17.6 °F 4.3 °F 14.0 °F 86% 29.96 in 10.0 mi NNE 12.7 mph - N/A   Overcast
8:45 PM 15.8 °F 3.4 °F 14.0 °F 93% 29.96 in 6.0 mi NNE 10.4 mph - N/A   Light Freezing Drizzle
9:00 PM 15.8 °F 2.7 °F 14.0 °F 93% 29.97 in 6.0 mi North 11.5 mph - N/A Snow Light Snow
9:37 PM 15.8 °F 2.7 °F 14.0 °F 93% 29.98 in 7.0 mi North 11.5 mph - N/A   Overcast
10:00 PM 15.8 °F 1.4 °F 14.0 °F 93% 29.99 in 5.0 mi NNE 13.8 mph - N/A Snow Light Snow
10:25 PM 15.8 °F 3.4 °F 14.0 °F 93% 30.01 in 2.0 mi North 10.4 mph - N/A Snow Light Snow
11:00 PM 15.8 °F 2.7 °F 14.0 °F 93% 30.02 in 2.2 mi North 11.5 mph - N/A Snow Light Snow
11:45 PM 15.8 °F 4.2 °F 14.0 °F 93% 30.03 in 2.5 mi North 9.2 mph - N/A Snow Light Snow